Dewpoint
65 67 69 69 68 69 69 68 68 66 65 65 65 64 64 60 60 62 62 63 62 62 62 62 62 62 62 62 62 61 61 60 59
66 67 69 69 68 69 68 68 67 67 65 64 64 65 62 58 60 61 62 63 63 62 62 62 62 62 62 61 62 62 61 61 60
68 67 68 69 68 68 68 68 68 67 67 66 65 65 61 57 59 61 62 62 63 63 63 63 63 62 62 62 62 62 62 61 61
69 68 69 69 69 68 68 68 68 68 67 67 67 65 63 58 56 61 61 63 65 63 63 63 62 62 62 62 62 62 61 61 60
69 69 69 69 69 69 68 68 67 67 67 67 67 67 64 61 58 56 61 63 65 64 63 62 63 62 62 62 62 61 60 60 59
68 69 68 68 68 68 68 68 68 67 67 67 66 66 66 63 60 56 56 64 65 64 64 63 62 63 62 62 62 61 60 60 59
67 68 68 68 68 68 67 67 67 67 66 64 65 66 65 64 61 58 56 59 64 65 64 65 63 63 63 63 62 62 61 61 60
67 67 67 67 67 68 68 67 67 66 65 63 62 65 65 64 63 60 59 59 60 64 65 65 65 64 63 63 63 62 62 62 62
66 66 66 66 66 66 67 67 67 66 64 63 62 61 62 63 62 60 60 60 60 61 63 65 65 65 64 63 63 63 63 63 63
65 66 66 66 66 66 66 66 66 65 64 63 62 62 61 60 60 60 60 60 61 61 61 63 64 65 65 64 63 63 63 64 64
65 64 65 65 65 65 66 65 65 64 64 63 63 62 62 61 61 60 60 60 60 61 61 62 63 64 64 64 64 64 64 64 64
63 64 64 64 65 65 65 64 64 63 63 63 63 63 62 62 61 60 60 59 59 59 61 62 63 65 63 62 63 64 64 65 65
60 62 63 64 64 64 63 63 62 62 62 62 62 63 62 62 62 60 59 58 58 58 59 61 63 64 64 62 62 63 64 65 66
56 59 61 63 63 63 62 61 62 61 61 61 61 60 60 60 60 59 57 56 56 56 56 58 60 62 63 62 62 63 63 64 64
49 58 60 62 62 62 61 61 62 62 61 61 62 61 61 61 60 58 57 56 55 55 55 56 57 58 60 62 62 63 63 63 64
50 56 58 60 60 60 61 61 60 60 61 60 59 58 58 59 60 60 60 59 59 57 56 55 56 56 58 59 61 63 63 63 63
51 54 57 58 58 60 60 60 59 60 60 57 56 52 51 52 54 58 59 59 60 60 59 57 56 56 56 56 58 60 61 61 62
54 56 57 57 58 57 58 59 59 57 58 59 54 49 48 51 52 53 54 55 57 58 59 60 59 57 56 56 57 57 58 59 60
55 57 58 57 58 58 58 58 58 58 56 57 57 57 56 52 48 52 53 53 54 55 57 58 59 59 58 56 56 57 57 59 60
56 58 58 57 58 57 56 56 57 57 57 56 54 54 53 54 53 50 51 52 53 54 55 56 56 57 58 57 57 57 57 59 59
Wind_Speed
9 9 7 4 9 10 10 9 8 8 10 11 10 9 6 4 6 7 5 3 4 5 6 6 5 6 6 6 7 7 7 7 6
10 10 8 7 10 11 11 11 10 9 9 9 9 7 5 5 7 8 6 5 4 5 6 6 6 5 5 5 5 5 5 5 4
11 12 11 10 13 13 12 11 11 12 11 11 9 8 5 3 6 7 6 7 6 6 6 6 6 5 5 4 4 4 4 3 3
13 13 13 14 16 15 14 13 11 12 11 8 8 8 8 5 5 8 8 9 9 7 7 7 7 7 6 5 5 5 4 4 3
15 14 14 14 16 16 15 14 13 11 10 10 10 9 8 6 5 6 10 11 11 9 9 9 9 8 7 7 6 6 5 5 4
15 14 15 15 16 16 16 15 14 14 12 11 10 10 8 8 7 7 9 12 12 12 11 11 11 10 9 9 8 8 7 7 6
14 15 16 17 17 17 17 16 15 14 11 10 11 9 9 9 9 8 10 11 14 15 13 13 13 12 12 11 11 10 10 10 9
12 12 12 13 16 13 14 15 13 14 12 11 11 10 11 10 10 9 11 12 12 15 17 15 14 15 14 13 13 12 12 12 12
11 11 13 14 12 13 13 13 14 15 15 14 13 12 11 11 11 12 13 14 15 15 18 18 17 16 16 16 15 15 15 15 14
10 11 13 13 12 15 15 15 15 16 16 15 15 14 14 13 12 12 15 16 16 17 18 21 20 19 17 17 17 16 17 17 17
9 11 13 13 13 14 15 16 16 16 15 16 15 15 12 12 12 13 15 17 17 17 19 20 22 22 20 19 19 19 20 21 21
13 11 12 13 13 13 12 11 11 12 11 13 13 13 13 13 15 15 14 15 19 20 19 21 21 22 23 23 21 21 21 22 22
13 12 12 10 10 13 13 13 14 13 13 14 13 11 11 13 15 15 13 13 13 16 21 21 22 23 24 26 25 23 22 23 22
13 13 11 8 8 9 10 11 13 13 12 13 11 11 12 14 13 16 14 15 15 14 16 21 23 23 25 28 29 28 26 24 24
14 12 12 9 9 9 9 12 11 8 11 9 9 9 10 12 14 15 13 14 14 14 17 16 17 24 26 27 29 30 29 27 25
14 12 11 10 12 11 9 8 14 10 7 5 1 5 11 15 14 13 15 16 15 14 16 14 13 14 20 24 25 26 28 29 28
12 12 12 10 11 8 8 12 11 5 9 5 3 4 5 4 8 10 12 14 11 14 15 16 16 16 15 17 22 25 28 29 28
10 10 10 9 7 7 6 5 7 7 4 4 5 1 6 5 4 5 8 11 12 14 15 15 16 16 16 18 20 24 26 27 29
8 8 7 7 6 8 6 3 4 5 5 2 1 3 3 4 10 2 8 14 17 18 15 15 16 16 15 18 21 23 25 25 26
8 2 5 7 7 11 11 11 9 8 5 3 5 3 8 11 12 15 11 9 14 16 17 16 17 17 16 15 17 24 27 26 26
Wind_Direction
223 226 233 239 176 156 159 161 160 163 165 164 163 162 163 148 183 183 188 194 181 140 137 134 127 123 121 119 116 113 109 110 108
221 220 222 220 191 182 179 177 176 174 178 181 177 166 160 149 155 171 186 211 189 165 160 158 155 148 139 131 126 119 114 111 108
228 220 215 213 200 192 194 193 196 187 193 192 182 175 172 144 175 184 196 219 216 190 186 183 179 175 169 160 148 142 140 136 130
235 224 223 219 212 205 197 196 204 198 197 208 189 186 184 181 184 201 213 226 230 210 207 204 203 199 194 192 184 181 179 175 174
242 236 232 222 212 205 201 200 206 217 212 217 215 207 198 203 216 226 222 225 230 221 218 219 219 216 213 213 213 210 210 213 212
244 239 231 226 221 215 207 203 206 209 216 223 229 226 213 209 226 240 243 233 233 240 225 230 230 229 227 226 228 228 229 231 235
239 237 234 232 229 225 220 214 211 213 215 219 223 227 225 228 230 234 240 245 245 246 238 233 240 239 235 233 234 237 239 239 239
251 242 236 234 237 231 226 221 214 212 214 221 222 221 218 224 239 247 252 244 249 248 252 237 235 243 243 242 241 243 245 247 246
255 246 235 223 221 223 222 214 211 213 216 221 225 230 234 236 239 246 249 252 253 257 254 255 243 242 247 246 246 244 246 248 251
250 250 242 230 217 216 215 215 214 214 214 218 221 228 234 242 248 252 252 251 252 252 258 254 251 246 246 252 253 251 249 249 249
260 255 250 237 222 222 221 219 214 215 210 216 218 228 230 235 241 249 258 254 253 254 252 255 254 256 252 251 253 242 240 243 243
268 250 245 242 227 223 212 223 219 215 208 215 220 223 234 246 251 250 244 247 250 251 251 251 251 252 254 260 259 255 254 247 247
268 265 254 251 250 215 216 218 218 219 211 223 222 228 231 241 245 245 240 243 244 247 247 248 247 247 249 253 256 256 253 251 247
271 262 259 239 236 236 222 224 215 210 216 220 211 222 232 243 250 250 243 241 242 244 250 253 252 250 250 253 255 253 250 250 248
262 260 259 236 229 234 229 228 218 209 208 210 221 236 241 245 249 255 254 251 247 243 247 248 252 253 253 253 256 258 258 253 249
255 248 247 229 238 244 233 231 230 223 177 150 265 266 254 252 245 249 257 261 258 253 252 250 249 254 252 251 253 256 259 258 253
252 250 246 230 231 238 248 233 239 178 170 159 122 341 326 318 260 243 250 262 266 264 256 253 251 251 252 251 253 254 260 263 260
279 265 241 227 200 216 223 233 224 161 168 206 143 151 250 322 283 265 268 276 283 276 270 260 252 246 244 250 257 256 256 262 269
296 268 229 209 179 141 121 110 73 84 132 51 59 187 210 286 304 303 300 275 271 272 269 268 261 252 245 245 245 252 257 260 266
41 91 142 124 114 106 110 96 83 68 106 103 245 240 263 257 247 285 284 293 276 262 255 257 256 254 247 246 249 250 253 257 264